User: anonymous   Login
Location: Friaudour
(46.0460°N, 1.2873°E)
Time: 13:51:00
(UTC+00:00)
Language:

CZ-4 R/B - Orbit

View from above orbital plane
View from above orbital plane
View from above satellite
View from above satellite

Ground track
Ground track

The orbit data is extracted from the following two-line orbital elements,

1 28059U 03049C   20274.78158164 +.00000014 +00000-0 +15097-4 0  9996
2 28059 098.4820 192.4815 0050103 175.2361 184.9321 14.52611726898122
Epoch (UTC): 30 September 2020 18:45:28
Eccentricity: 0.0050103
inclination: 98.4820°
perigee height: 681 km
apogee height: 752 km
right ascension of ascending node: 192.4815°
argument of perigee: 175.2361°
revolutions per day: 14.52611726
mean anomaly at epoch: 184.9321°
orbit number at epoch: 89812

The dashed part of the orbit path shows where the satellite is in the earth's shadow,  

DLR